Location: Eisingen in Unterfranken
(49.7591°N, 9.8347°E)
Time: 07:46:20
(UTC+01:00)

BlueWalker 3 - Pass Details

Date: 05 December 2022
Orbit: 499 x 517 km, 53.2° (Epoch: 28 January)

Event Time Altitude Azimuth Distance (km) Brightness Sun altitude
Rises 17:37:51 0° 284° (WNW) 2,634 6.6 -11.8°
Reaches altitude 10° 17:40:06 10° 289° (WNW) 1,743 5.5 -12.1°
Maximum altitude 17:43:58 52° 7° (N) 643 2.3 -12.7°
Enters shadow 17:46:18 22° 76° (ENE) 1,169 3.1 -13.1°
